Year,Month,Day,Hour,Minute,Value (Times are PST for temperature in C)
2010,04,23,00,00,7.10
2010,04,23,00,01,7.00
2010,04,23,00,02,7.00
2010,04,23,00,03,7.00
2010,04,23,00,04,6.90
2010,04,23,00,05,6.80
2010,04,23,00,06,6.80
2010,04,23,00,07,6.80
2010,04,23,00,08,6.70
2010,04,23,00,09,6.70
2010,04,23,00,10,6.70
2010,04,23,00,11,6.60
2010,04,23,00,12,6.60
2010,04,23,00,13,6.60
2010,04,23,00,14,6.60
2010,04,23,00,15,6.60
2010,04,23,00,16,6.60
2010,04,23,00,17,6.60
2010,04,23,00,18,6.60
2010,04,23,00,19,6.60
2010,04,23,00,20,6.60
2010,04,23,00,21,6.60
2010,04,23,00,22,6.60
2010,04,23,00,23,6.70
2010,04,23,00,24,6.70
2010,04,23,00,25,6.70
2010,04,23,00,26,6.80
2010,04,23,00,27,6.80
2010,04,23,00,28,6.80
2010,04,23,00,29,6.80
2010,04,23,00,30,6.90
2010,04,23,00,31,6.90
2010,04,23,00,32,6.90
2010,04,23,00,33,7.00
2010,04,23,00,34,7.00
2010,04,23,00,35,7.00
2010,04,23,00,36,7.10
2010,04,23,00,37,7.10
2010,04,23,00,38,7.10
2010,04,23,00,39,7.10
2010,04,23,00,40,7.10
2010,04,23,00,41,7.10
2010,04,23,00,42,7.10
2010,04,23,00,43,7.10
2010,04,23,00,44,7.10
2010,04,23,00,45,7.20
2010,04,23,00,46,7.20
2010,04,23,00,47,7.20
2010,04,23,00,48,7.20
2010,04,23,00,49,7.10
2010,04,23,00,50,7.10
2010,04,23,00,51,7.00
2010,04,23,00,52,6.90
2010,04,23,00,53,6.80
2010,04,23,00,54,6.80
2010,04,23,00,55,6.70
2010,04,23,00,56,6.70
2010,04,23,00,57,6.70
2010,04,23,00,58,6.70
2010,04,23,00,59,6.70
2010,04,23,01,00,6.70
2010,04,23,01,01,6.70
2010,04,23,01,02,6.70
2010,04,23,01,03,6.70
2010,04,23,01,04,6.70
2010,04,23,01,05,6.70
2010,04,23,01,06,6.70
2010,04,23,01,07,6.70
2010,04,23,01,08,6.60
2010,04,23,01,09,6.60
2010,04,23,01,10,6.60
2010,04,23,01,11,6.60
2010,04,23,01,12,6.60
2010,04,23,01,13,6.70
2010,04,23,01,14,6.70
2010,04,23,01,15,6.70
2010,04,23,01,16,6.70
2010,04,23,01,17,6.70
2010,04,23,01,18,6.70
2010,04,23,01,19,6.70
2010,04,23,01,20,6.70
2010,04,23,01,21,6.70
2010,04,23,01,22,6.70
2010,04,23,01,23,6.70
2010,04,23,01,24,6.70
2010,04,23,01,25,6.70
2010,04,23,01,26,6.70
2010,04,23,01,27,6.70
2010,04,23,01,28,6.70
2010,04,23,01,29,6.70
2010,04,23,01,30,6.70
2010,04,23,01,31,6.70
2010,04,23,01,32,6.70
2010,04,23,01,33,6.70
2010,04,23,01,34,6.70
2010,04,23,01,35,6.70
2010,04,23,01,36,6.70
2010,04,23,01,37,6.70
2010,04,23,01,38,6.70
2010,04,23,01,39,6.70
2010,04,23,01,40,6.70
2010,04,23,01,41,6.70
2010,04,23,01,42,6.70
2010,04,23,01,43,6.70
2010,04,23,01,44,6.70
2010,04,23,01,45,6.70
2010,04,23,01,46,6.60
2010,04,23,01,47,6.60
2010,04,23,01,48,6.60
2010,04,23,01,49,6.60
2010,04,23,01,50,6.70
2010,04,23,01,51,6.70
2010,04,23,01,52,6.60
2010,04,23,01,53,6.60
2010,04,23,01,54,6.60
2010,04,23,01,55,6.60
2010,04,23,01,56,6.60
2010,04,23,01,57,6.60
2010,04,23,01,58,6.60
2010,04,23,01,59,6.60
2010,04,23,02,00,6.60
2010,04,23,02,01,6.60
2010,04,23,02,02,6.60
2010,04,23,02,03,6.50
2010,04,23,02,04,6.50
2010,04,23,02,05,6.50
2010,04,23,02,06,6.50
2010,04,23,02,07,6.50
2010,04,23,02,08,6.40
2010,04,23,02,09,6.30
2010,04,23,02,10,6.30
2010,04,23,02,11,6.30
2010,04,23,02,12,6.30
2010,04,23,02,13,6.30
2010,04,23,02,14,6.30
2010,04,23,02,15,6.20
2010,04,23,02,16,6.20
2010,04,23,02,17,6.20
2010,04,23,02,18,6.10
2010,04,23,02,19,6.00
2010,04,23,02,20,6.00
2010,04,23,02,21,5.90
2010,04,23,02,22,5.90
2010,04,23,02,23,6.00
2010,04,23,02,24,6.00
2010,04,23,02,25,6.10
2010,04,23,02,26,6.10
2010,04,23,02,27,6.20
2010,04,23,02,28,6.20
2010,04,23,02,29,6.30
2010,04,23,02,30,6.30
2010,04,23,02,31,6.30
2010,04,23,02,32,6.40
2010,04,23,02,33,6.40
2010,04,23,02,34,6.40
2010,04,23,02,35,6.40
2010,04,23,02,36,6.40
2010,04,23,02,37,6.30
2010,04,23,02,38,6.30
2010,04,23,02,39,6.30
2010,04,23,02,40,6.30
2010,04,23,02,41,6.30
2010,04,23,02,42,6.30
2010,04,23,02,43,6.30
2010,04,23,02,44,6.30
2010,04,23,02,45,6.30
2010,04,23,02,46,6.30
2010,04,23,02,47,6.30
2010,04,23,02,48,6.30
2010,04,23,02,49,6.30
2010,04,23,02,50,6.30
2010,04,23,02,51,6.30
2010,04,23,02,52,6.30
2010,04,23,02,53,6.20
2010,04,23,02,54,6.20
2010,04,23,02,55,6.20
2010,04,23,02,56,6.20
2010,04,23,02,57,6.10
2010,04,23,02,58,6.10
2010,04,23,02,59,6.00
2010,04,23,03,00,5.90
2010,04,23,03,01,5.90
2010,04,23,03,02,5.80
2010,04,23,03,03,5.80
2010,04,23,03,04,5.80
2010,04,23,03,05,5.80
2010,04,23,03,06,5.80
2010,04,23,03,07,5.80
2010,04,23,03,08,5.80
2010,04,23,03,09,5.80
2010,04,23,03,10,5.80
2010,04,23,03,11,5.80
2010,04,23,03,12,5.80
2010,04,23,03,13,5.80
2010,04,23,03,14,5.90
2010,04,23,03,15,5.90
2010,04,23,03,16,5.90
2010,04,23,03,17,5.90
2010,04,23,03,18,5.90
2010,04,23,03,19,5.90
2010,04,23,03,20,5.90
2010,04,23,03,21,5.90
2010,04,23,03,22,5.90
2010,04,23,03,23,5.90
2010,04,23,03,24,5.90
2010,04,23,03,25,5.90
2010,04,23,03,26,5.80
2010,04,23,03,27,5.80
2010,04,23,03,28,5.80
2010,04,23,03,29,5.80
2010,04,23,03,30,5.80
2010,04,23,03,31,5.70
2010,04,23,03,32,5.70
2010,04,23,03,33,5.70
2010,04,23,03,34,5.60
2010,04,23,03,35,5.60
2010,04,23,03,36,5.50
2010,04,23,03,37,5.40
2010,04,23,03,38,5.40
2010,04,23,03,39,5.40
2010,04,23,03,40,5.40
2010,04,23,03,41,5.30
2010,04,23,03,42,5.30
2010,04,23,03,43,5.30
2010,04,23,03,44,5.30
2010,04,23,03,45,5.40
2010,04,23,03,46,5.40
2010,04,23,03,47,5.40
2010,04,23,03,48,5.50
2010,04,23,03,49,5.60
2010,04,23,03,50,5.60
2010,04,23,03,51,5.60
2010,04,23,03,52,5.60
2010,04,23,03,53,5.60
2010,04,23,03,54,5.70
2010,04,23,03,55,5.70
2010,04,23,03,56,5.70
2010,04,23,03,57,5.80
2010,04,23,03,58,5.80
2010,04,23,03,59,5.80
2010,04,23,04,00,5.80
2010,04,23,04,01,5.90
2010,04,23,04,02,5.90
2010,04,23,04,03,5.90
2010,04,23,04,04,5.90
2010,04,23,04,05,5.90
2010,04,23,04,06,5.90
2010,04,23,04,07,5.90
2010,04,23,04,08,5.90
2010,04,23,04,09,5.90
2010,04,23,04,10,5.90
2010,04,23,04,11,5.90
2010,04,23,04,12,5.90
2010,04,23,04,13,5.90
2010,04,23,04,14,5.90
2010,04,23,04,15,5.90
2010,04,23,04,16,5.90
2010,04,23,04,17,5.90
2010,04,23,04,18,5.80
2010,04,23,04,19,5.80
2010,04,23,04,20,5.80
2010,04,23,04,21,5.80
2010,04,23,04,22,5.80
2010,04,23,04,23,5.70
2010,04,23,04,24,5.70
2010,04,23,04,25,5.70
2010,04,23,04,26,5.70
2010,04,23,04,27,5.70
2010,04,23,04,28,5.70
2010,04,23,04,29,5.70
2010,04,23,04,30,5.70
2010,04,23,04,31,5.70
2010,04,23,04,32,5.70
2010,04,23,04,33,5.70
2010,04,23,04,34,5.70
2010,04,23,04,35,5.70
2010,04,23,04,36,5.70
2010,04,23,04,37,5.60
2010,04,23,04,38,5.60
2010,04,23,04,39,5.60
2010,04,23,04,40,5.60
2010,04,23,04,41,5.60
2010,04,23,04,42,5.60
2010,04,23,04,43,5.60
2010,04,23,04,44,5.60
2010,04,23,04,45,5.60
2010,04,23,04,46,5.60
2010,04,23,04,47,5.70
2010,04,23,04,48,5.70
2010,04,23,04,49,5.70
2010,04,23,04,50,5.60
2010,04,23,04,51,5.60
2010,04,23,04,52,5.60
2010,04,23,04,53,5.60
2010,04,23,04,54,5.60
2010,04,23,04,55,5.60
2010,04,23,04,56,5.50
2010,04,23,04,57,5.40
2010,04,23,04,58,5.40
2010,04,23,04,59,5.30
2010,04,23,05,00,5.30
2010,04,23,05,01,5.30
2010,04,23,05,02,5.30
2010,04,23,05,03,5.30
2010,04,23,05,04,5.30
2010,04,23,05,05,5.30
2010,04,23,05,06,5.30
2010,04,23,05,07,5.30
2010,04,23,05,08,5.30
2010,04,23,05,09,5.20
2010,04,23,05,10,5.20
2010,04,23,05,11,5.10
2010,04,23,05,12,5.10
2010,04,23,05,13,5.00
2010,04,23,05,14,5.00
2010,04,23,05,15,5.00
2010,04,23,05,16,5.00
2010,04,23,05,17,5.00
2010,04,23,05,18,5.00
2010,04,23,05,19,4.90
2010,04,23,05,20,4.90
2010,04,23,05,21,4.90
2010,04,23,05,22,4.90
2010,04,23,05,23,4.80
2010,04,23,05,24,4.80
2010,04,23,05,25,4.70
2010,04,23,05,26,4.70
2010,04,23,05,27,4.60
2010,04,23,05,28,4.60
2010,04,23,05,29,4.60
2010,04,23,05,30,4.50
2010,04,23,05,31,4.50
2010,04,23,05,32,4.50
2010,04,23,05,33,4.60
2010,04,23,05,34,4.60
2010,04,23,05,35,4.70
2010,04,23,05,36,4.70
2010,04,23,05,37,4.80
2010,04,23,05,38,4.80
2010,04,23,05,39,4.80
2010,04,23,05,40,4.90
2010,04,23,05,41,4.90
2010,04,23,05,42,4.90
2010,04,23,05,43,4.90
2010,04,23,05,44,5.00
2010,04,23,05,45,4.90
2010,04,23,05,46,4.90
2010,04,23,05,47,4.90
2010,04,23,05,48,4.90
2010,04,23,05,49,4.90
2010,04,23,05,50,4.90
2010,04,23,05,51,4.90
2010,04,23,05,52,4.80
2010,04,23,05,53,4.80
2010,04,23,05,54,4.80
2010,04,23,05,55,4.70
2010,04,23,05,56,4.70
2010,04,23,05,57,4.70
2010,04,23,05,58,4.70
2010,04,23,05,59,4.70
2010,04,23,06,00,4.60
2010,04,23,06,01,4.60
2010,04,23,06,02,4.60
2010,04,23,06,03,4.60
2010,04,23,06,04,4.60
2010,04,23,06,05,4.60
2010,04,23,06,06,4.60
2010,04,23,06,07,4.60
2010,04,23,06,08,4.60
2010,04,23,06,09,4.60
2010,04,23,06,10,4.60
2010,04,23,06,11,4.60
2010,04,23,06,12,4.50
2010,04,23,06,13,4.50
2010,04,23,06,14,4.50
2010,04,23,06,15,4.50
2010,04,23,06,16,4.50
2010,04,23,06,17,4.40
2010,04,23,06,18,4.40
2010,04,23,06,19,4.40
2010,04,23,06,20,4.40
2010,04,23,06,21,4.40
2010,04,23,06,22,4.40
2010,04,23,06,23,4.40
2010,04,23,06,24,4.40
2010,04,23,06,25,4.30
2010,04,23,06,26,4.30
2010,04,23,06,27,4.30
2010,04,23,06,28,4.30
2010,04,23,06,29,4.30
2010,04,23,06,30,4.30
2010,04,23,06,31,4.30
2010,04,23,06,32,4.30
2010,04,23,06,33,4.30
2010,04,23,06,34,4.30
2010,04,23,06,35,4.30
2010,04,23,06,36,4.30
2010,04,23,06,37,4.30
2010,04,23,06,38,4.40
2010,04,23,06,39,4.40
2010,04,23,06,40,4.40
2010,04,23,06,41,4.40
2010,04,23,06,42,4.50
2010,04,23,06,43,4.50
2010,04,23,06,44,4.50
2010,04,23,06,45,4.50
2010,04,23,06,46,4.60
2010,04,23,06,47,4.60
2010,04,23,06,48,4.60
2010,04,23,06,49,4.60
2010,04,23,06,50,4.60
2010,04,23,06,51,4.60
2010,04,23,06,52,4.60
2010,04,23,06,53,4.60
2010,04,23,06,54,4.60
2010,04,23,06,55,4.60
2010,04,23,06,56,4.60
2010,04,23,06,57,4.60
2010,04,23,06,58,4.70
2010,04,23,06,59,4.70
2010,04,23,07,00,4.80
2010,04,23,07,01,4.80
2010,04,23,07,02,4.80
2010,04,23,07,03,4.90
2010,04,23,07,04,5.00
2010,04,23,07,05,5.00
2010,04,23,07,06,5.10
2010,04,23,07,07,5.10
2010,04,23,07,08,5.20
2010,04,23,07,09,5.20
2010,04,23,07,10,5.30
2010,04,23,07,11,5.40
2010,04,23,07,12,5.40
2010,04,23,07,13,5.50
2010,04,23,07,14,5.50
2010,04,23,07,15,5.60
2010,04,23,07,16,5.60
2010,04,23,07,17,5.60
2010,04,23,07,18,5.70
2010,04,23,07,19,5.70
2010,04,23,07,20,5.70
2010,04,23,07,21,5.70
2010,04,23,07,22,5.80
2010,04,23,07,23,5.80
2010,04,23,07,24,5.80
2010,04,23,07,25,5.80
2010,04,23,07,26,5.80
2010,04,23,07,27,5.90
2010,04,23,07,28,5.90
2010,04,23,07,29,5.90
2010,04,23,07,30,5.90
2010,04,23,07,31,5.90
2010,04,23,07,32,5.90
2010,04,23,07,33,5.90
2010,04,23,07,34,5.80
2010,04,23,07,35,5.80
2010,04,23,07,36,5.80
2010,04,23,07,37,5.80
2010,04,23,07,38,5.80
2010,04,23,07,39,5.80
2010,04,23,07,40,5.80
2010,04,23,07,41,5.80
2010,04,23,07,42,5.80
2010,04,23,07,43,5.80
2010,04,23,07,44,5.80
2010,04,23,07,45,5.80
2010,04,23,07,46,5.80
2010,04,23,07,47,5.80
2010,04,23,07,48,5.80
2010,04,23,07,49,5.80
2010,04,23,07,50,5.80
2010,04,23,07,51,5.80
2010,04,23,07,52,5.80
2010,04,23,07,53,5.90
2010,04,23,07,54,5.90
2010,04,23,07,55,5.90
2010,04,23,07,56,5.90
2010,04,23,07,57,5.90
2010,04,23,07,58,5.90
2010,04,23,07,59,5.90
2010,04,23,08,00,5.90
2010,04,23,08,01,6.00
2010,04,23,08,02,6.00
2010,04,23,08,03,6.00
2010,04,23,08,04,6.10
2010,04,23,08,05,6.10
2010,04,23,08,06,6.10
2010,04,23,08,07,6.10
2010,04,23,08,08,6.10
2010,04,23,08,09,6.20
2010,04,23,08,10,6.20
2010,04,23,08,11,6.20
2010,04,23,08,12,6.20
2010,04,23,08,13,6.20
2010,04,23,08,14,6.20
2010,04,23,08,15,6.10
2010,04,23,08,16,6.10
2010,04,23,08,17,6.10
2010,04,23,08,18,6.10
2010,04,23,08,19,6.20
2010,04,23,08,20,6.20
2010,04,23,08,21,6.20
2010,04,23,08,22,6.20
2010,04,23,08,23,6.20
2010,04,23,08,24,6.30
2010,04,23,08,25,6.30
2010,04,23,08,26,6.30
2010,04,23,08,27,6.30
2010,04,23,08,28,6.30
2010,04,23,08,29,6.30
2010,04,23,08,30,6.30
2010,04,23,08,31,6.40
2010,04,23,08,32,6.40
2010,04,23,08,33,6.40
2010,04,23,08,34,6.40
2010,04,23,08,35,6.40
2010,04,23,08,36,6.40
2010,04,23,08,37,6.50
2010,04,23,08,38,6.50
2010,04,23,08,39,6.60
2010,04,23,08,40,6.60
2010,04,23,08,41,6.60
2010,04,23,08,42,6.70
2010,04,23,08,43,6.70
2010,04,23,08,44,6.70
2010,04,23,08,45,6.70
2010,04,23,08,46,6.70
2010,04,23,08,47,6.70
2010,04,23,08,48,6.70
2010,04,23,08,49,6.80
2010,04,23,08,50,6.80
2010,04,23,08,51,6.80
2010,04,23,08,52,6.90
2010,04,23,08,53,6.90
2010,04,23,08,54,6.90
2010,04,23,08,55,7.00
2010,04,23,08,56,7.00
2010,04,23,08,57,7.10
2010,04,23,08,58,7.10
2010,04,23,08,59,7.20
2010,04,23,09,00,7.20
2010,04,23,09,01,7.20
2010,04,23,09,02,7.20
2010,04,23,09,03,7.30
2010,04,23,09,04,7.30
2010,04,23,09,05,7.30
2010,04,23,09,06,7.30
2010,04,23,09,07,7.30
2010,04,23,09,08,7.30
2010,04,23,09,09,7.40
2010,04,23,09,10,7.40
2010,04,23,09,11,7.40
2010,04,23,09,12,7.30
2010,04,23,09,13,7.30
2010,04,23,09,14,7.30
2010,04,23,09,15,7.30
2010,04,23,09,16,7.40
2010,04,23,09,17,7.40
2010,04,23,09,18,7.40
2010,04,23,09,19,7.40
2010,04,23,09,20,7.40
2010,04,23,09,21,7.40
2010,04,23,09,22,7.40
2010,04,23,09,23,7.50
2010,04,23,09,24,7.50
2010,04,23,09,25,7.40
2010,04,23,09,26,7.50
2010,04,23,09,27,7.50
2010,04,23,09,28,7.60
2010,04,23,09,29,7.60
2010,04,23,09,30,7.70
2010,04,23,09,31,7.70
2010,04,23,09,32,7.80
2010,04,23,09,33,7.80
2010,04,23,09,34,7.80
2010,04,23,09,35,7.80
2010,04,23,09,36,7.80
2010,04,23,09,37,7.80
2010,04,23,09,38,7.90
2010,04,23,09,39,7.90
2010,04,23,09,40,7.90
2010,04,23,09,41,7.90
2010,04,23,09,42,7.90
2010,04,23,09,43,7.90
2010,04,23,09,44,7.90
2010,04,23,09,45,8.00
2010,04,23,09,46,8.00
2010,04,23,09,47,7.90
2010,04,23,09,48,7.90
2010,04,23,09,49,7.90
2010,04,23,09,50,7.90
2010,04,23,09,51,7.90
2010,04,23,09,52,7.90
2010,04,23,09,53,7.90
2010,04,23,09,54,7.90
2010,04,23,09,55,7.90
2010,04,23,09,56,8.00
2010,04,23,09,57,7.90
2010,04,23,09,58,7.90
2010,04,23,09,59,7.90
2010,04,23,10,00,7.90
2010,04,23,10,01,7.90
2010,04,23,10,02,7.90
2010,04,23,10,03,7.90
2010,04,23,10,04,7.90
2010,04,23,10,05,7.90
2010,04,23,10,06,7.90
2010,04,23,10,07,7.90
2010,04,23,10,08,7.90
2010,04,23,10,09,7.90
2010,04,23,10,10,7.90
2010,04,23,10,11,8.00
2010,04,23,10,12,8.00
2010,04,23,10,13,8.00
2010,04,23,10,14,8.10
2010,04,23,10,15,8.10
2010,04,23,10,16,8.10
2010,04,23,10,17,8.10
2010,04,23,10,18,8.10
2010,04,23,10,19,8.20
2010,04,23,10,20,8.20
2010,04,23,10,21,8.20
2010,04,23,10,22,8.30
2010,04,23,10,23,8.30
2010,04,23,10,24,8.30
2010,04,23,10,25,8.30
2010,04,23,10,26,8.30
2010,04,23,10,27,8.30
2010,04,23,10,28,8.30
2010,04,23,10,29,8.30
2010,04,23,10,30,8.30
2010,04,23,10,31,8.30
2010,04,23,10,32,8.40
2010,04,23,10,33,8.40
2010,04,23,10,34,8.40
2010,04,23,10,35,8.40
2010,04,23,10,36,8.40
2010,04,23,10,37,8.40
2010,04,23,10,38,8.40
2010,04,23,10,39,8.40
2010,04,23,10,40,8.40
2010,04,23,10,41,8.40
2010,04,23,10,42,8.40
2010,04,23,10,43,8.50
2010,04,23,10,44,8.50
2010,04,23,10,45,8.60
2010,04,23,10,46,8.60
2010,04,23,10,47,8.60
2010,04,23,10,48,8.60
2010,04,23,10,49,8.60
2010,04,23,10,50,8.60
2010,04,23,10,51,8.60
2010,04,23,10,52,8.60
2010,04,23,10,53,8.60
2010,04,23,10,54,8.60
2010,04,23,10,55,8.70
2010,04,23,10,56,8.70
2010,04,23,10,57,8.70
2010,04,23,10,58,8.70
2010,04,23,10,59,8.70
2010,04,23,11,00,8.70
2010,04,23,11,01,8.80
2010,04,23,11,02,8.80
2010,04,23,11,03,8.80
2010,04,23,11,04,8.90
2010,04,23,11,05,9.00
2010,04,23,11,06,9.00
2010,04,23,11,07,9.00
2010,04,23,11,08,8.90
2010,04,23,11,09,9.00
2010,04,23,11,10,8.90
2010,04,23,11,11,8.90
2010,04,23,11,12,8.90
2010,04,23,11,13,8.90
2010,04,23,11,14,8.90
2010,04,23,11,15,8.90
2010,04,23,11,16,8.90
2010,04,23,11,17,8.90
2010,04,23,11,18,9.00
2010,04,23,11,19,9.10
2010,04,23,11,20,9.10
2010,04,23,11,21,9.10
2010,04,23,11,22,9.10
2010,04,23,11,23,9.10
2010,04,23,11,24,9.10
2010,04,23,11,25,9.10
2010,04,23,11,26,9.10
2010,04,23,11,27,9.20
2010,04,23,11,28,9.20
2010,04,23,11,29,9.20
2010,04,23,11,30,9.20
2010,04,23,11,31,9.30
2010,04,23,11,32,9.30
2010,04,23,11,33,9.30
2010,04,23,11,34,9.40
2010,04,23,11,35,9.40
2010,04,23,11,36,9.30
2010,04,23,11,37,9.20
2010,04,23,11,38,9.20
2010,04,23,11,39,9.10
2010,04,23,11,40,9.10
2010,04,23,11,41,9.10
2010,04,23,11,42,9.10
2010,04,23,11,43,9.20
2010,04,23,11,44,9.20
2010,04,23,11,45,9.20
2010,04,23,11,46,9.10
2010,04,23,11,47,9.10
2010,04,23,11,48,9.10
2010,04,23,11,49,9.00
2010,04,23,11,50,9.00
2010,04,23,11,51,9.00
2010,04,23,11,52,9.10
2010,04,23,11,53,9.10
2010,04,23,11,54,9.20
2010,04,23,11,55,9.30
2010,04,23,11,56,9.40
2010,04,23,11,57,9.40
2010,04,23,11,58,9.40
2010,04,23,11,59,9.40
2010,04,23,12,00,9.40
2010,04,23,12,01,9.40
2010,04,23,12,02,9.40
2010,04,23,12,03,9.50
2010,04,23,12,04,9.50
2010,04,23,12,05,9.50
2010,04,23,12,06,9.50
2010,04,23,12,07,9.40
2010,04,23,12,08,9.40
2010,04,23,12,09,9.40
2010,04,23,12,10,9.40
2010,04,23,12,11,9.50
2010,04,23,12,12,9.60
2010,04,23,12,13,9.60
2010,04,23,12,14,9.60
2010,04,23,12,15,9.60
2010,04,23,12,16,9.60
2010,04,23,12,17,9.60
2010,04,23,12,18,9.50
2010,04,23,12,19,9.50
2010,04,23,12,20,9.50
2010,04,23,12,21,9.60
2010,04,23,12,22,9.60
2010,04,23,12,23,9.60
2010,04,23,12,24,9.70
2010,04,23,12,25,9.70
2010,04,23,12,26,9.80
2010,04,23,12,27,9.90
2010,04,23,12,28,9.90
2010,04,23,12,29,9.90
2010,04,23,12,30,9.80
2010,04,23,12,31,9.80
2010,04,23,12,32,9.70
2010,04,23,12,33,9.60
2010,04,23,12,34,9.60
2010,04,23,12,35,9.60
2010,04,23,12,36,9.60
2010,04,23,12,37,9.70
2010,04,23,12,38,9.80
2010,04,23,12,39,9.90
2010,04,23,12,40,9.90
2010,04,23,12,41,9.80
2010,04,23,12,42,9.80
2010,04,23,12,43,9.80
2010,04,23,12,44,9.80
2010,04,23,12,45,9.80
2010,04,23,12,46,9.80
2010,04,23,12,47,9.80
2010,04,23,12,48,9.90
2010,04,23,12,49,9.90
2010,04,23,12,50,10.00
2010,04,23,12,51,10.00
2010,04,23,12,52,10.00
2010,04,23,12,53,9.90
2010,04,23,12,54,9.80
2010,04,23,12,55,9.80
2010,04,23,12,56,9.70
2010,04,23,12,57,9.70
2010,04,23,12,58,9.70
2010,04,23,12,59,9.60
2010,04,23,13,00,9.60
2010,04,23,13,01,9.50
2010,04,23,13,02,9.50
2010,04,23,13,03,9.50
2010,04,23,13,04,9.50
2010,04,23,13,05,9.50
2010,04,23,13,06,9.50
2010,04,23,13,07,9.50
2010,04,23,13,08,9.50
2010,04,23,13,09,9.40
2010,04,23,13,10,9.40
2010,04,23,13,11,9.40
2010,04,23,13,12,9.40
2010,04,23,13,13,9.50
2010,04,23,13,14,9.40
2010,04,23,13,15,9.50
2010,04,23,13,16,9.50
2010,04,23,13,17,9.60
2010,04,23,13,18,9.60
2010,04,23,13,19,9.60
2010,04,23,13,20,9.60
2010,04,23,13,21,9.60
2010,04,23,13,22,9.70
2010,04,23,13,23,9.70
2010,04,23,13,24,9.80
2010,04,23,13,25,9.80
2010,04,23,13,26,9.80
2010,04,23,13,27,9.90
2010,04,23,13,28,9.90
2010,04,23,13,29,9.80
2010,04,23,13,30,9.70
2010,04,23,13,31,9.70
2010,04,23,13,32,9.70
2010,04,23,13,33,9.70
2010,04,23,13,34,9.70
2010,04,23,13,35,9.80
2010,04,23,13,36,9.80
2010,04,23,13,37,9.80
2010,04,23,13,38,9.90
2010,04,23,13,39,9.90
2010,04,23,13,40,10.00
2010,04,23,13,41,10.00
2010,04,23,13,42,10.00
2010,04,23,13,43,9.90
2010,04,23,13,44,9.80
2010,04,23,13,45,9.80
2010,04,23,13,46,9.80
2010,04,23,13,47,9.80
2010,04,23,13,48,9.80
2010,04,23,13,49,9.90
2010,04,23,13,50,9.90
2010,04,23,13,51,9.80
2010,04,23,13,52,9.80
2010,04,23,13,53,9.80
2010,04,23,13,54,9.80
2010,04,23,13,55,9.80
2010,04,23,13,56,9.90
2010,04,23,13,57,10.10
2010,04,23,13,58,10.20
2010,04,23,13,59,10.20
2010,04,23,14,00,10.20
2010,04,23,14,01,10.20
2010,04,23,14,02,10.20
2010,04,23,14,03,10.30
2010,04,23,14,04,10.20
2010,04,23,14,05,10.20
2010,04,23,14,06,10.20
2010,04,23,14,07,10.30
2010,04,23,14,08,10.40
2010,04,23,14,09,10.50
2010,04,23,14,10,10.50
2010,04,23,14,11,10.50
2010,04,23,14,12,10.40
2010,04,23,14,13,10.40
2010,04,23,14,14,10.40
2010,04,23,14,15,10.50
2010,04,23,14,16,10.50
2010,04,23,14,17,10.40
2010,04,23,14,18,10.40
2010,04,23,14,19,10.40
2010,04,23,14,20,10.30
2010,04,23,14,21,10.20
2010,04,23,14,22,10.10
2010,04,23,14,23,10.00
2010,04,23,14,24,9.90
2010,04,23,14,25,9.80
2010,04,23,14,26,9.80
2010,04,23,14,27,9.80
2010,04,23,14,28,9.80
2010,04,23,14,29,9.80
2010,04,23,14,30,9.90
2010,04,23,14,31,9.90
2010,04,23,14,32,9.80
2010,04,23,14,33,9.70
2010,04,23,14,34,9.70
2010,04,23,14,35,9.70
2010,04,23,14,36,9.60
2010,04,23,14,37,9.60
2010,04,23,14,38,9.60
2010,04,23,14,39,9.60
2010,04,23,14,40,9.60
2010,04,23,14,41,9.60
2010,04,23,14,42,9.70
2010,04,23,14,43,9.70
2010,04,23,14,44,9.80
2010,04,23,14,45,9.80
2010,04,23,14,46,9.80
2010,04,23,14,47,9.90
2010,04,23,14,48,9.90
2010,04,23,14,49,9.90
2010,04,23,14,50,10.00
2010,04,23,14,51,9.90
2010,04,23,14,52,9.90
2010,04,23,14,53,9.80
2010,04,23,14,54,9.80
2010,04,23,14,55,9.70
2010,04,23,14,56,9.70
2010,04,23,14,57,9.60
2010,04,23,14,58,9.60
2010,04,23,14,59,9.50
2010,04,23,15,00,9.60
2010,04,23,15,01,9.60
2010,04,23,15,02,9.60
2010,04,23,15,03,9.60
2010,04,23,15,04,9.60
2010,04,23,15,05,9.70
2010,04,23,15,06,9.70
2010,04,23,15,07,9.70
2010,04,23,15,08,9.70
2010,04,23,15,09,9.70
2010,04,23,15,10,9.60
2010,04,23,15,11,9.60
2010,04,23,15,12,9.60
2010,04,23,15,13,9.50
2010,04,23,15,14,9.40
2010,04,23,15,15,9.40
2010,04,23,15,16,9.30
2010,04,23,15,17,9.30
2010,04,23,15,18,9.30
2010,04,23,15,19,9.30
2010,04,23,15,20,9.30
2010,04,23,15,21,9.30
2010,04,23,15,22,9.20
2010,04,23,15,23,9.20
2010,04,23,15,24,9.20
2010,04,23,15,25,9.20
2010,04,23,15,26,9.20
2010,04,23,15,27,9.20
2010,04,23,15,28,9.20
2010,04,23,15,29,9.20
2010,04,23,15,30,9.20
2010,04,23,15,31,9.20
2010,04,23,15,32,9.20
2010,04,23,15,33,9.20
2010,04,23,15,34,9.10
2010,04,23,15,35,9.20
2010,04,23,15,36,9.10
2010,04,23,15,37,9.10
2010,04,23,15,38,9.20
2010,04,23,15,39,9.20
2010,04,23,15,40,9.20
2010,04,23,15,41,9.20
2010,04,23,15,42,9.20
2010,04,23,15,43,9.30
2010,04,23,15,44,9.30
2010,04,23,15,45,9.30
2010,04,23,15,46,9.20
2010,04,23,15,47,9.10
2010,04,23,15,48,9.10
2010,04,23,15,49,9.10
2010,04,23,15,50,9.00
2010,04,23,15,51,8.90
2010,04,23,15,52,8.90
2010,04,23,15,53,8.90
2010,04,23,15,54,8.80
2010,04,23,15,55,8.80
2010,04,23,15,56,8.80
2010,04,23,15,57,8.70
2010,04,23,15,58,8.70
2010,04,23,15,59,8.70
2010,04,23,16,00,8.70
2010,04,23,16,01,8.80
2010,04,23,16,02,8.70
2010,04,23,16,03,8.70
2010,04,23,16,04,8.70
2010,04,23,16,05,8.60
2010,04,23,16,06,8.60
2010,04,23,16,07,8.60
2010,04,23,16,08,8.50
2010,04,23,16,09,8.50
2010,04,23,16,10,8.50
2010,04,23,16,11,8.40
2010,04,23,16,12,8.30
2010,04,23,16,13,8.30
2010,04,23,16,14,8.20
2010,04,23,16,15,8.20
2010,04,23,16,16,8.20
2010,04,23,16,17,8.20
2010,04,23,16,18,8.20
2010,04,23,16,19,8.20
2010,04,23,16,20,8.10
2010,04,23,16,21,8.10
2010,04,23,16,22,8.10
2010,04,23,16,23,8.10
2010,04,23,16,24,8.10
2010,04,23,16,25,8.10
2010,04,23,16,26,8.10
2010,04,23,16,27,8.10
2010,04,23,16,28,8.10
2010,04,23,16,29,8.10
2010,04,23,16,30,8.10
2010,04,23,16,31,8.00
2010,04,23,16,32,8.10
2010,04,23,16,33,8.10
2010,04,23,16,34,8.10
2010,04,23,16,35,8.10
2010,04,23,16,36,8.10
2010,04,23,16,37,8.10
2010,04,23,16,38,8.10
2010,04,23,16,39,8.10
2010,04,23,16,40,8.10
2010,04,23,16,41,8.10
2010,04,23,16,42,8.20
2010,04,23,16,43,8.20
2010,04,23,16,44,8.20
2010,04,23,16,45,8.20
2010,04,23,16,46,8.20
2010,04,23,16,47,8.20
2010,04,23,16,48,8.20
2010,04,23,16,49,8.20
2010,04,23,16,50,8.20
2010,04,23,16,51,8.30
2010,04,23,16,52,8.30
2010,04,23,16,53,8.30
2010,04,23,16,54,8.30
2010,04,23,16,55,8.30
2010,04,23,16,56,8.40
2010,04,23,16,57,8.40
2010,04,23,16,58,8.40
2010,04,23,16,59,8.40
2010,04,23,17,00,8.40
2010,04,23,17,01,8.40
2010,04,23,17,02,8.50
2010,04,23,17,03,8.50
2010,04,23,17,04,8.50
2010,04,23,17,05,8.60
2010,04,23,17,06,8.60
2010,04,23,17,07,8.60
2010,04,23,17,08,8.70
2010,04,23,17,09,8.70
2010,04,23,17,10,8.70
2010,04,23,17,11,8.80
2010,04,23,17,12,8.80
2010,04,23,17,13,8.80
2010,04,23,17,14,8.70
2010,04,23,17,15,8.70
2010,04,23,17,16,8.60
2010,04,23,17,17,8.60
2010,04,23,17,18,8.60
2010,04,23,17,19,8.50
2010,04,23,17,20,8.50
2010,04,23,17,21,8.50
2010,04,23,17,22,8.50
2010,04,23,17,23,8.50
2010,04,23,17,24,8.40
2010,04,23,17,25,8.40
2010,04,23,17,26,8.40
2010,04,23,17,27,8.40
2010,04,23,17,28,8.40
2010,04,23,17,29,8.40
2010,04,23,17,30,8.40
2010,04,23,17,31,8.40
2010,04,23,17,32,8.40
2010,04,23,17,33,8.40
2010,04,23,17,34,8.40
2010,04,23,17,35,8.40
2010,04,23,17,36,8.30
2010,04,23,17,37,8.30
2010,04,23,17,38,8.30
2010,04,23,17,39,8.30
2010,04,23,17,40,8.30
2010,04,23,17,41,8.30
2010,04,23,17,42,8.30
2010,04,23,17,43,8.30
2010,04,23,17,44,8.30
2010,04,23,17,45,8.20
2010,04,23,17,46,8.20
2010,04,23,17,47,8.20
2010,04,23,17,48,8.20
2010,04,23,17,49,8.30
2010,04,23,17,50,8.30
2010,04,23,17,51,8.30
2010,04,23,17,52,8.30
2010,04,23,17,53,8.30
2010,04,23,17,54,8.30
2010,04,23,17,55,8.30
2010,04,23,17,56,8.30
2010,04,23,17,57,8.30
2010,04,23,17,58,8.30
2010,04,23,17,59,8.30
2010,04,23,18,00,8.30
2010,04,23,18,01,8.30
2010,04,23,18,02,8.30
2010,04,23,18,03,8.30
2010,04,23,18,04,8.30
2010,04,23,18,05,8.30